Location: Bakov nad Jizerou
(50.4784°N, 14.9394°E)
Time: 23:06:51
(UTC+00:00)

Cosmos 1346 Rocket - Pass Details

Date: 16 June 2021
Orbit: 527 x 551 km, 81.2° (Epoch: 23 July)

Event Time Altitude Azimuth Distance (km) Brightness Sun altitude
Exits shadow 22:18:47 21° 212° (SSW) 1,253 4.2 -15.6°
Maximum altitude 22:21:16 57° 285° (WNW) 649 3.3 -15.6°
Drops below altitude 10° 22:25:16 10° 5° (N) 1,834 6.7 -15.7°
Sets 22:27:29 0° 10° (N) 2,736 7.8 -15.8°
